Regional Weather Roundup
Issued by NWS

Home | Current Version | Previous Version | Graphics & Text | Print | Product List | Glossary Off
Versions: 1 2 3 4 5 6 7 8 9 10 11 12 13 14 15 16 17 18 19 20 21 22 23 24 25 26 27 28 29 30 31 32 33 34 35 36 37 38 39 40 41 42 43 44 45 46 47 48 49 50

435
ASUS43 KFSD 251302
RWRSD

WEATHER ROUNDUP FOR SOUTH DAKOTA
NATIONAL WEATHER SERVICE SIOUX FALLS SD
800 AM CDT SAT MAR 25 2017

NOTE: "FAIR" INDICATES FEW OR NO CLOUDS BELOW 12,000 FEET WITH NO
SIGNIFICANT WEATHER AND/OR OBSTRUCTIONS TO VISIBILITY.


SDZ001>005-009-010-012>017-251400-
NORTHWEST AND NORTH CENTRAL SOUTH DAKOTA

CITY           SKY/WX    TMP DP  RH WIND       PRES   REMARKS
BUFFALO          N/A     35  30  82 S8        29.84S WCI  29
FAITH            N/A     31  30  96 SE20      29.96F WCI  19
MOBRIDGE       FOG       32  29  88 SE16      30.03F VSB 3/4 WCI  21
$$

SDZ012>016-024>037-041>051-057-063-072>074-251400-
SOUTHWEST AND SOUTH CENTRAL SOUTH DAKOTA

CITY           SKY/WX    TMP DP  RH WIND       PRES   REMARKS
RAPID CTY ARPT CLOUDY    35  28  75 SE12      29.95R WCI  27
PIERRE         FOG       31  30  96 SE16      30.06F VSB 1/4 WCI  20
CUSTER         CLOUDY    32  23  69 W3        29.96S
ELLSWORTH AFB  CLOUDY    38  29  71 S8        29.93R
PHILIP         CLOUDY    26  25  96 NE7       30.02R WCI  18
PINE RIDGE     CLOUDY    41  31  67 S15       29.99F
SPEARFISH      FAIR      41  28  60 SW7       29.90S
WINNER         FOG       31  30  96 S8        30.09R VSB 1/2 WCI  23
$$

SDZ004>011-016>023-039-040-251400-
NORTHEAST SOUTH DAKOTA

CITY           SKY/WX    TMP DP  RH WIND       PRES   REMARKS
ABERDEEN       CLOUDY    32  28  85 SE8       30.14R WCI  25
WATERTOWN      CLOUDY    31  29  92 E7        30.12S WCI  24
BROOKINGS      CLOUDY    32  30  92 E12       30.12S FOG     WCI  23
SISSETON         N/A     32  31  96 SE6       30.16R WCI  26
$$

SDZ017-020-022-023-036>040-048>070-251400-
SOUTHEAST SOUTH DAKOTA

CITY           SKY/WX    TMP DP  RH WIND       PRES   REMARKS
SIOUX FALLS    CLOUDY    35  34  96 NE10      30.12R FOG     WCI  27
HURON          CLOUDY    33  31  92 E9        30.13S WCI  25
CHAMBERLAIN    CLOUDY    35  34  96 E8        30.10S WCI  29
MITCHELL       CLOUDY    34  31  88 E7        30.15R WCI  28
YANKTON        CLOUDY    36  34  93 NE9       30.11S
$$

ABBREVIATIONS USED IN REMARKS
   TC - TEMPERATURE IN CELSIUS
  WCI - WIND CHILL INDEX
   HX - HEAT INDEX
  VSB - VISIBILITY





USA.gov is the U.S. government's official web portal to all federal, state and local government web resources and services.